Flag for Germany Weather past 2 weeks in Siegen, North Rhine-Westphalia, Germany

Now
81 °F

Sunny.


Feels Like: 82 °F
Forecast: 72 / 90 °F
Wind: 13 mph from Southeast

Location: Hessen

Current Time: Jul 2, 2015 at 11:53:11 AM

Latest Report: Jul 2, 2015 at 10:50 AM


Visibility: 10 mi

Pressure: 30.18 "Hg

Humidity: 54%

Dew point: 63 °F

Location of SiegenLocation

Historic Weather in Siegen — Graph

°F

Siegen temperature yesterday

Maximum temperature yesterday: 82 °F (at 2:50 PM)
Minimum temperature yesterday: 64 °F (at 7:50 AM)
Average temperature yesterday: 77 °F

Past Weeks' High & Low Weather Summary

 TemperatureHumidityPressure
High82 °F (Jul 1, 2:50 PM)100% (Jun 18, 7:50 AM)30.27 "Hg (Jun 18, 7:50 AM)
Low45 °F (Jun 19, 6:20 AM)36% (Jun 30, 2:20 PM)29.68 "Hg (Jun 22, 8:50 PM)
Average60 °F74%30.10 "Hg
* Reported Jun 17 10:20 AM — Jul 2 10:20 AM, Siegen, Weather by CustomWeather, © 2015

Note: Actual official high and low records may vary slightly from our data, if they occured in-between our weather recording intervals... More about our weather records

Advertising

Siegen weather history for previous 24 hours

 ConditionsComfort  
Time TempWeatherWind HumidityBarometerVisibility
10:20 AM
Thu, Jul 2
79 °FSunny.13 mph58%30.21 "Hg10 mi
9:50 AM77 °FSunny.12 mph65%30.21 "Hg10 mi
9:20 AM75 °FSunny.12 mph65%30.21 "Hg10 mi
8:50 AM73 °FSunny.12 mph65%30.18 "Hg10 mi
8:20 AM72 °FSunny.13 mph69%30.18 "Hg10 mi
7:50 AM70 °FSunny.12 mph69%30.18 "Hg10 mi
9:50 PM
Wed, Jul 1
75 °FSunny.8 mph57%30.15 "Hg10 mi
9:20 PM75 °FSunny.8 mph57%30.12 "Hg10 mi
8:50 PM77 °FSunny.7 mph57%30.12 "Hg10 mi
8:20 PM79 °FSunny.9 mph54%30.12 "Hg10 mi
7:50 PM81 °FSunny.12 mph48%30.12 "Hg10 mi
7:20 PM82 °FSunny.12 mph45%30.12 "Hg10 mi
6:50 PM82 °FPassing clouds.9 mph45%30.12 "HgN/A
6:20 PM82 °FPassing clouds.10 mph45%30.12 "HgN/A
5:50 PM82 °FPassing clouds.14 mph45%30.12 "HgN/A
5:20 PM82 °FPassing clouds.12 mph48%30.12 "HgN/A
4:50 PM82 °FPassing clouds.13 mph45%30.12 "HgN/A
4:20 PM82 °FPassing clouds.12 mph45%30.15 "HgN/A
3:50 PM81 °FPassing clouds.13 mph45%30.15 "HgN/A
3:20 PM82 °FPassing clouds.13 mph45%30.15 "HgN/A
2:50 PM82 °FPassing clouds.12 mph45%30.15 "HgN/A
2:20 PM81 °FPassing clouds.13 mph48%30.15 "HgN/A
1:50 PM81 °FPassing clouds.12 mph45%30.15 "HgN/A
1:20 PM81 °FSunny.12 mph48%30.15 "Hg10 mi
12:50 PM79 °FSunny.13 mph45%30.15 "Hg10 mi
12:20 PM79 °FPassing clouds.13 mph48%30.15 "HgN/A
11:50 AM77 °FPassing clouds.10 mph54%30.15 "HgN/A
11:20 AM75 °FSunny.12 mph57%30.15 "Hg10 mi
Weather by CustomWeather, © 2015

See weather overviewHow to use our weather pages